Temperature
5 5 4 4 4 3 3 3 3 2 2 1 1 0 -1 -1 -2 -2 -2 -2 -2 -2 -3 -4 -4 -4 -3 -3 -3 -2 -2 -2 -2 -2 -2 -1 -1 -0 0 1 1 2 4
5 5 4 4 4 3 3 2 2 2 1 1 0 -0 -1 -2 -2 -3 -3 -3 -3 -3 -4 -4 -4 -4 -4 -4 -3 -3 -3 -3 -3 -3 -2 -2 -2 -1 -1 -0 0 1 2
5 5 4 4 3 3 2 2 2 1 1 0 -0 -1 -1 -2 -2 -3 -3 -4 -4 -4 -4 -5 -5 -5 -5 -5 -4 -4 -4 -4 -4 -3 -3 -3 -2 -2 -2 -1 -0 0 1
5 4 4 3 3 3 2 2 1 0 -0 -0 -1 -1 -1 -2 -2 -3 -3 -4 -4 -5 -5 -5 -5 -6 -6 -6 -5 -5 -5 -4 -4 -4 -4 -3 -3 -3 -2 -2 -1 -0 0
5 4 4 3 3 2 2 1 1 0 -1 -1 -1 -1 -2 -2 -2 -3 -3 -4 -5 -5 -5 -6 -6 -6 -6 -6 -6 -6 -5 -5 -5 -5 -4 -4 -4 -3 -3 -2 -2 -1 -0
5 4 4 3 3 2 2 1 0 -0 -1 -2 -2 -2 -2 -2 -2 -3 -3 -4 -4 -5 -5 -6 -6 -6 -6 -7 -7 -6 -6 -6 -5 -5 -5 -5 -4 -4 -3 -3 -2 -2 -1
5 4 4 3 3 2 1 1 0 -1 -2 -3 -4 -4 -3 -3 -3 -3 -4 -4 -4 -5 -5 -6 -6 -6 -7 -7 -7 -7 -7 -7 -6 -6 -6 -5 -5 -4 -4 -3 -3 -2 -1
5 4 4 3 3 2 1 1 0 -1 -2 -3 -4 -5 -4 -4 -4 -4 -4 -4 -5 -5 -5 -6 -6 -7 -7 -7 -7 -7 -7 -7 -7 -6 -6 -6 -5 -5 -4 -4 -3 -2 -1
5 4 4 3 3 2 1 1 0 -1 -2 -3 -4 -5 -5 -4 -4 -5 -5 -5 -5 -5 -6 -6 -7 -7 -7 -7 -7 -8 -8 -8 -7 -7 -6 -6 -5 -5 -4 -4 -3 -2 -1
6 5 4 3 3 2 2 1 0 -1 -2 -3 -5 -5 -5 -6 -7 -6 -6 -5 -6 -6 -6 -6 -7 -7 -7 -8 -8 -8 -8 -8 -8 -7 -7 -6 -6 -5 -4 -4 -4 -3 -2
7 5 4 4 3 2 2 1 0 -1 -1 -2 -4 -5 -6 -7 -7 -8 -7 -6 -6 -6 -6 -7 -7 -7 -7 -8 -8 -8 -8 -8 -8 -8 -7 -7 -6 -6 -5 -4 -4 -3 -2
7 6 5 4 3 2 2 1 0 -1 -1 -2 -3 -5 -6 -7 -7 -7 -7 -7 -6 -6 -6 -7 -7 -7 -7 -8 -8 -8 -8 -8 -8 -8 -8 -7 -7 -6 -6 -5 -4 -4 -2
8 7 6 5 4 3 2 1 0 -1 -1 -2 -3 -4 -5 -6 -7 -7 -8 -8 -7 -7 -7 -7 -7 -7 -7 -8 -8 -8 -9 -9 -9 -8 -8 -8 -7 -7 -6 -6 -5 -4 -3
8 7 6 5 4 3 2 1 0 -1 -1 -2 -3 -3 -5 -5 -7 -7 -8 -8 -8 -8 -7 -6 -6 -7 -7 -8 -8 -9 -9 -9 -9 -9 -8 -8 -8 -7 -7 -6 -6 -5 -4
7 6 5 4 3 2 2 1 -0 -1 -1 -2 -3 -3 -4 -5 -6 -7 -8 -9 -9 -9 -8 -7 -7 -7 -7 -8 -8 -9 -9 -9 -9 -9 -9 -8 -8 -8 -7 -7 -6 -5 -5
7 5 4 3 2 2 1 0 -0 -1 -2 -2 -3 -4 -4 -5 -6 -7 -8 -9 -9 -10 -9 -8 -8 -8 -8 -8 -8 -9 -9 -9 -9 -9 -9 -9 -8 -8 -8 -7 -7 -6 -5
6 4 3 2 1 1 0 -0 -0 -1 -2 -2 -3 -3 -4 -5 -6 -7 -8 -9 -9 -10 -10 -9 -8 -8 -8 -8 -8 -8 -9 -9 -9 -9 -9 -9 -8 -8 -8 -8 -7 -6 -5
5 3 2 1 0 -0 -1 -1 -1 -1 -2 -2 -3 -4 -4 -5 -6 -7 -8 -8 -9 -9 -10 -9 -9 -8 -8 -8 -8 -9 -9 -9 -9 -9 -9 -9 -9 -9 -8 -8 -7 -7 -6
5 3 1 0 -0 -1 -1 -1 -1 -2 -2 -3 -3 -4 -4 -5 -6 -7 -8 -8 -9 -9 -9 -9 -9 -9 -8 -8 -8 -9 -9 -9 -9 -9 -9 -9 -9 -9 -8 -8 -7 -7 -6
4 2 1 -0 -1 -2 -1 -2 -2 -2 -2 -3 -3 -4 -4 -5 -5 -6 -7 -8 -9 -9 -9 -9 -9 -8 -8 -8 -8 -9 -9 -9 -9 -9 -9 -9 -9 -9 -9 -8 -8 -7 -6
4 2 0 -1 -2 -3 -2 -2 -3 -3 -3 -3 -3 -4 -4 -5 -5 -6 -7 -7 -8 -8 -8 -8 -8 -8 -8 -8 -8 -9 -9 -9 -9 -9 -9 -9 -9 -9 -9 -8 -8 -7 -6
3 1 -0 -2 -3 -3 -3 -3 -3 -3 -3 -4 -4 -4 -4 -5 -5 -6 -7 -7 -7 -8 -8 -8 -8 -8 -8 -8 -9 -9 -10 -10 -10 -9 -10 -9 -9 -9 -9 -8 -8 -7 -6
2 1 -1 -2 -3 -3 -4 -4 -4 -4 -4 -4 -4 -4 -5 -5 -6 -6 -7 -8 -8 -8 -8 -8 -8 -9 -9 -9 -9 -10 -10 -10 -10 -10 -10 -10 -10 -9 -9 -8 -8 -7 -6
1 -0 -1 -3 -4 -4 -4 -4 -4 -5 -4 -4 -4 -4 -5 -5 -6 -7 -7 -8 -8 -8 -8 -9 -9 -9 -9 -10 -10 -10 -10 -11 -10 -10 -10 -10 -10 -10 -9 -8 -8 -7 -6
0 -1 -2 -3 -4 -4 -4 -5 -5 -5 -5 -5 -4 -5 -5 -5 -6 -7 -8 -8 -8 -8 -8 -9 -9 -9 -9 -10 -10 -10 -11 -11 -11 -11 -11 -11 -11 -10 -9 -8 -8 -7 -7
-0 -2 -3 -4 -5 -5 -4 -5 -5 -5 -5 -5 -5 -5 -5 -5 -6 -7 -8 -8 -8 -8 -9 -9 -9 -9 -10 -10 -10 -11 -11 -12 -12 -11 -11 -12 -11 -11 -10 -9 -8 -7 -7
Wind_Speed
9 8 7 6 5 4 4 3 3 3 4 5 6 7 8 9 10 11 11 13 16 17 18 19 20 21 22 23 24 25 25 27 28 29 30 31 32 33 34 35 36 36 37
10 9 8 7 7 6 5 4 4 4 5 6 7 8 10 11 11 12 12 13 14 15 17 18 20 21 22 23 24 25 26 27 29 30 31 32 33 34 35 36 37 37 38
13 11 9 9 8 7 6 6 5 6 6 7 8 10 10 11 12 13 13 12 12 13 15 17 19 20 22 23 24 25 26 28 29 31 32 33 34 35 36 37 38 39 39
15 13 10 10 9 8 8 7 6 6 6 7 7 8 10 11 13 14 13 12 12 12 13 16 18 20 21 23 24 25 27 28 30 31 33 34 36 36 37 38 39 40 40
18 15 12 11 11 10 9 8 7 6 7 7 8 8 10 11 12 13 13 13 13 13 13 15 17 19 20 22 23 25 27 28 30 32 34 35 37 38 38 40 40 41 41
20 18 14 13 13 10 9 8 9 8 7 7 8 10 11 11 12 11 12 12 12 13 14 15 15 16 19 21 23 25 27 29 31 33 34 36 37 38 40 41 41 42 43
21 20 15 15 14 11 11 11 9 10 8 7 8 9 10 11 10 9 10 11 12 14 14 15 15 15 16 20 22 24 27 29 31 33 35 37 38 39 41 42 42 43 44
22 21 19 15 15 12 13 12 11 9 8 7 6 6 6 6 8 8 9 10 12 13 13 15 16 17 17 17 19 25 27 29 32 34 36 38 39 40 41 42 42 43 44
25 23 22 19 16 14 12 14 13 13 10 9 9 7 6 5 6 7 10 10 11 11 12 15 17 18 19 19 20 22 26 29 32 35 37 38 39 40 41 42 43 44 43
26 26 24 22 18 16 14 14 14 12 12 10 9 10 10 8 7 6 7 9 11 13 14 13 16 18 19 19 20 24 27 30 32 35 37 39 40 40 40 41 42 42 39
25 26 25 22 19 16 16 16 15 15 12 12 10 9 10 10 12 10 11 12 11 12 12 13 15 17 19 19 20 23 27 30 32 35 37 38 40 40 40 40 41 40 38
17 24 25 23 21 18 17 17 16 17 14 14 12 11 10 9 9 11 13 14 14 13 14 13 14 15 17 19 21 25 28 31 33 35 36 37 39 40 39 39 39 39 37
17 21 22 21 20 20 19 18 16 16 17 16 15 12 12 12 11 12 13 14 16 15 16 14 13 15 16 18 20 24 27 30 33 34 35 36 37 38 37 38 38 37 35
18 20 23 22 22 21 20 18 16 16 15 16 16 16 12 12 12 12 13 13 15 16 16 17 13 14 16 18 21 25 25 29 32 33 35 35 36 36 36 36 36 35 34
17 21 22 22 22 21 20 19 15 17 15 16 16 16 14 13 12 13 13 13 14 16 18 18 15 15 16 18 22 23 24 28 32 34 35 35 36 36 35 34 34 33 33
20 20 21 22 22 21 20 19 16 16 17 16 14 15 15 13 12 13 13 13 14 15 17 16 16 17 18 18 24 24 25 30 32 33 34 34 34 34 34 33 33 32 31
21 21 21 21 21 21 20 20 19 18 18 17 16 16 17 16 13 13 13 13 14 14 17 19 18 18 21 21 20 21 23 23 23 29 32 33 33 33 32 32 31 31 30
20 21 20 21 21 21 21 21 21 19 19 19 18 17 18 14 17 15 14 15 15 15 17 21 20 18 21 21 21 21 18 19 21 27 30 32 32 31 31 31 30 29 29
20 20 21 22 22 22 21 21 21 20 19 19 18 18 18 17 17 15 16 15 14 15 16 17 19 18 17 17 19 19 20 18 19 22 26 28 28 28 29 29 28 28 27
20 21 21 22 22 21 20 20 20 19 19 18 18 18 17 17 18 17 15 16 16 16 17 17 17 17 17 17 16 16 16 16 16 16 20 21 24 27 27 27 26 26 25
20 20 21 21 21 20 18 19 19 18 18 18 17 17 18 20 21 18 15 15 15 15 15 15 16 16 16 15 15 15 16 16 17 15 15 15 16 15 16 19 21 22 23
19 20 21 21 22 19 25 29 22 18 18 18 17 17 17 20 22 25 26 25 22 18 16 16 16 17 18 17 16 15 16 17 18 14 14 16 15 15 14 13 18 21 22
18 20 20 21 22 24 29 30 31 20 18 17 17 16 14 15 19 16 20 23 23 25 24 19 18 19 19 17 18 19 17 18 18 16 16 17 15 16 14 14 21 21 21
17 18 19 21 21 22 29 30 30 23 18 18 17 17 16 15 15 15 14 15 16 17 18 15 15 17 17 17 17 17 18 18 19 15 14 16 15 15 15 14 18 18 18
16 17 17 19 21 21 27 29 28 17 17 18 16 16 16 16 19 20 16 16 16 15 17 21 22 22 24 24 19 13 13 14 15 14 12 11 13 14 14 13 11 13 15
15 15 16 18 20 20 24 28 29 16 16 15 14 15 20 19 19 20 15 15 16 14 12 13 15 17 16 16 18 13 12 13 14 12 8 8 11 10 8 8 8 9 10
Wind_Direction
203 201 206 206 213 218 229 253 275 299 305 309 306 305 302 299 296 294 293 295 300 303 305 308 311 313 313 313 313 314 314 314 314 313 312 310 308 305 303 300 298 295 293
205 204 207 210 214 218 228 244 261 277 284 288 289 289 288 288 284 284 285 287 286 291 297 301 305 307 308 309 310 311 311 311 310 309 308 306 304 302 299 297 294 292 290
207 206 211 210 212 214 221 234 243 258 268 273 276 280 280 278 277 279 280 279 281 282 286 293 298 302 304 305 306 306 307 307 307 307 305 302 301 299 296 294 292 289 286
208 209 212 213 209 210 219 227 238 249 254 264 272 276 275 273 272 274 274 270 273 280 285 287 293 297 300 301 301 302 303 304 304 303 302 300 298 296 293 291 288 286 283
208 210 214 213 208 211 217 222 230 240 252 260 269 275 273 269 270 269 266 265 267 274 281 286 289 291 294 296 299 300 301 301 301 300 299 298 296 293 291 288 286 283 280
208 211 215 214 209 212 215 217 226 231 246 259 270 273 271 268 266 263 262 262 264 271 277 283 288 289 289 293 296 298 299 299 299 298 296 295 294 291 289 287 283 280 278
209 210 213 212 211 215 216 218 224 233 237 243 263 270 266 258 256 255 256 261 267 273 277 280 285 288 290 292 293 294 296 298 298 296 294 293 291 289 288 285 282 278 275
211 210 213 212 211 215 217 218 219 227 234 229 243 274 282 262 233 245 256 260 268 274 276 280 284 285 288 290 289 291 293 295 295 295 293 292 290 289 286 284 282 279 274
212 211 212 213 212 213 216 214 214 220 228 226 225 241 263 277 291 260 257 262 268 273 277 281 282 284 286 287 289 289 290 292 294 293 293 292 291 288 287 283 282 283 274
214 213 212 213 213 214 217 215 214 218 225 233 226 229 239 257 268 284 265 261 267 273 276 280 283 285 285 286 285 287 288 290 291 292 292 292 292 292 289 287 284 286 276
215 213 212 211 213 214 215 214 213 215 219 227 231 230 236 244 244 252 276 283 280 276 279 282 283 283 284 284 285 285 288 289 290 291 293 294 294 293 293 292 288 287 281
214 214 211 211 212 212 213 213 214 216 218 224 230 234 237 241 245 250 266 278 285 286 286 283 281 280 281 282 283 286 288 289 290 291 292 294 295 294 293 293 292 291 286
216 213 209 210 210 211 211 210 212 216 219 223 227 231 236 242 249 256 266 276 282 286 286 282 278 278 280 281 283 286 288 288 289 289 291 293 294 295 292 293 291 293 292
221 215 211 211 210 208 207 208 212 216 219 223 228 231 237 242 245 249 257 271 281 285 284 283 285 284 285 285 284 287 287 286 287 288 290 291 292 293 292 291 292 293 295
224 218 213 212 211 208 206 206 212 214 217 222 227 230 235 241 243 247 251 255 266 280 285 288 291 289 289 287 286 286 285 286 287 288 288 290 291 292 292 292 292 292 294
225 220 215 213 211 208 206 206 212 215 217 221 225 231 235 240 243 246 248 252 253 261 274 282 287 288 289 286 285 286 285 287 287 286 287 288 289 290 290 290 291 291 292
227 224 219 215 212 209 206 207 210 211 216 223 224 230 236 239 243 246 248 250 252 255 265 276 281 285 287 286 286 285 285 286 286 286 286 287 288 288 288 288 289 290 289
228 224 220 217 214 211 206 207 210 211 215 221 225 229 235 236 240 245 248 251 253 255 261 273 280 284 285 287 287 286 286 285 285 286 286 287 286 286 287 287 286 286 286
228 223 219 218 215 212 208 208 210 211 216 221 225 228 234 235 240 243 246 250 254 257 258 266 275 280 283 285 287 285 285 286 285 285 287 286 285 286 286 285 284 283 283
228 224 221 219 217 213 209 208 209 211 216 222 225 229 233 234 238 243 247 250 254 258 260 264 270 277 282 285 286 288 290 289 289 290 288 286 285 286 284 282 281 280 280
229 225 223 221 218 216 211 206 207 209 215 222 226 229 233 235 237 241 244 249 251 257 263 267 272 279 282 288 289 291 290 292 290 290 290 288 288 285 284 281 278 277 276
229 225 224 222 220 218 216 211 206 210 215 220 226 230 234 239 243 247 253 256 257 261 268 272 277 281 286 289 291 291 291 292 292 292 292 290 289 286 283 279 279 281 278
231 227 225 222 222 221 218 216 212 209 216 220 224 229 232 236 241 247 255 262 266 267 267 270 275 280 286 288 290 289 287 287 288 292 293 289 289 286 286 281 282 280 276
233 230 227 224 225 224 220 219 217 214 220 223 224 226 232 238 240 244 251 258 260 262 263 265 268 274 277 280 281 282 284 285 285 284 284 285 289 290 291 287 284 278 277
236 232 229 226 225 224 221 220 218 218 222 225 226 227 231 238 244 247 251 257 262 263 265 267 268 272 277 283 285 287 286 286 288 290 290 282 287 296 294 289 284 282 279
239 234 232 228 226 225 221 219 217 218 222 224 225 226 231 235 243 247 250 257 263 268 271 274 274 277 279 280 282 277 277 280 284 289 287 280 288 301 298 292 301 304 294
Height
1563 1562 1561 1560 1559 1558 1557 1556 1554 1553 1551 1549 1547 1545 1542 1539 1537 1534 1531 1528 1525 1523 1521 1519 1518 1516 1514 1512 1510 1507 1505 1502 1500 1497 1495 1493 1491 1490 1488 1487 1486 1486 1486
1558 1558 1557 1556 1555 1554 1553 1552 1551 1549 1547 1545 1543 1540 1538 1535 1532 1530 1526 1523 1520 1518 1516 1514 1512 1510 1509 1507 1504 1502 1499 1496 1494 1491 1489 1487 1485 1483 1482 1480 1479 1478 1478
1553 1553 1552 1552 1551 1550 1549 1547 1546 1544 1543 1541 1538 1536 1533 1531 1528 1525 1522 1519 1516 1513 1510 1508 1506 1504 1502 1500 1498 1495 1493 1490 1487 1485 1482 1480 1478 1476 1474 1473 1471 1470 1470
1548 1547 1547 1546 1545 1545 1544 1542 1541 1540 1538 1536 1534 1532 1529 1526 1523 1520 1517 1514 1511 1508 1505 1502 1500 1498 1495 1493 1491 1489 1486 1483 1481 1478 1475 1473 1471 1468 1466 1464 1463 1462 1461
1542 1542 1541 1541 1540 1539 1538 1537 1536 1534 1533 1531 1529 1526 1524 1521 1518 1515 1513 1510 1506 1503 1500 1497 1494 1491 1488 1486 1484 1481 1479 1476 1474 1471 1468 1465 1463 1460 1458 1455 1454 1453 1452
1535 1535 1535 1534 1534 1533 1532 1531 1530 1528 1527 1525 1523 1521 1518 1516 1513 1510 1508 1505 1502 1498 1495 1492 1488 1485 1482 1479 1476 1474 1471 1469 1466 1463 1460 1457 1454 1451 1449 1446 1444 1443 1442
1527 1527 1527 1527 1527 1526 1526 1525 1524 1523 1521 1519 1517 1515 1512 1510 1507 1504 1502 1500 1497 1493 1490 1486 1483 1479 1476 1472 1469 1466 1464 1461 1458 1455 1452 1449 1446 1443 1439 1437 1434 1432 1431
1519 1519 1519 1519 1519 1519 1518 1518 1517 1516 1515 1514 1513 1511 1509 1507 1502 1500 1497 1494 1491 1488 1484 1481 1477 1474 1470 1466 1462 1459 1456 1453 1450 1447 1444 1440 1437 1433 1430 1427 1423 1421 1419
1509 1510 1511 1511 1511 1511 1510 1510 1510 1509 1509 1508 1506 1506 1505 1501 1499 1495 1492 1489 1486 1482 1479 1475 1471 1468 1464 1460 1455 1451 1448 1445 1442 1439 1435 1431 1427 1424 1420 1417 1413 1409 1406
1499 1500 1501 1502 1502 1502 1502 1502 1502 1501 1501 1501 1500 1498 1497 1495 1493 1488 1486 1483 1480 1476 1473 1469 1465 1461 1457 1453 1448 1444 1440 1437 1434 1431 1427 1423 1418 1413 1409 1406 1402 1397 1394
1488 1489 1490 1491 1492 1492 1492 1493 1493 1493 1492 1493 1492 1491 1490 1488 1486 1483 1478 1476 1474 1471 1467 1463 1458 1454 1450 1446 1441 1437 1433 1430 1426 1423 1419 1414 1409 1404 1399 1395 1391 1386 1383
1475 1476 1478 1479 1480 1481 1482 1483 1483 1484 1484 1484 1484 1483 1482 1481 1479 1477 1473 1469 1466 1463 1460 1456 1452 1448 1443 1439 1435 1430 1426 1422 1418 1414 1410 1406 1401 1395 1391 1386 1381 1377 1373
1462 1463 1465 1467 1468 1470 1472 1473 1473 1474 1474 1474 1474 1474 1473 1472 1471 1470 1467 1462 1458 1454 1451 1448 1445 1441 1437 1432 1427 1423 1418 1414 1410 1406 1402 1397 1392 1387 1382 1378 1373 1368 1364
1450 1452 1453 1455 1457 1459 1461 1462 1463 1464 1465 1465 1465 1465 1464 1464 1463 1461 1459 1457 1451 1446 1443 1440 1438 1434 1430 1425 1420 1415 1410 1405 1401 1397 1393 1388 1383 1378 1374 1370 1365 1360 1356
1440 1440 1441 1443 1445 1447 1449 1451 1452 1454 1455 1456 1456 1456 1456 1455 1454 1453 1451 1450 1447 1440 1433 1430 1429 1426 1422 1417 1412 1407 1402 1397 1392 1388 1383 1379 1374 1369 1365 1361 1357 1353 1348
1430 1429 1429 1430 1433 1435 1438 1440 1442 1444 1446 1446 1447 1447 1447 1446 1445 1444 1443 1441 1438 1434 1426 1421 1420 1417 1413 1409 1404 1400 1394 1389 1383 1378 1374 1369 1365 1361 1356 1352 1349 1345 1342
1419 1419 1419 1420 1422 1424 1426 1429 1431 1434 1436 1437 1437 1438 1438 1438 1436 1435 1434 1432 1429 1426 1420 1413 1412 1408 1405 1400 1396 1391 1386 1380 1374 1369 1364 1360 1356 1352 1348 1344 1340 1337 1335
1408 1408 1409 1409 1410 1412 1415 1417 1420 1423 1425 1426 1428 1428 1428 1428 1427 1426 1425 1422 1420 1418 1414 1407 1402 1400 1396 1392 1387 1382 1377 1372 1366 1360 1355 1350 1346 1342 1338 1334 1332 1329 1327
1397 1397 1396 1397 1398 1400 1403 1406 1409 1412 1414 1416 1418 1418 1419 1419 1418 1417 1415 1413 1411 1409 1406 1401 1394 1392 1388 1384 1379 1374 1369 1364 1358 1352 1347 1342 1337 1332 1329 1325 1322 1320 1319
1386 1385 1385 1385 1387 1389 1391 1394 1398 1400 1403 1406 1408 1408 1409 1409 1408 1407 1406 1404 1403 1400 1397 1393 1388 1384 1380 1376 1372 1367 1360 1356 1350 1345 1339 1334 1329 1324 1320 1317 1314 1312 1311
1376 1374 1374 1374 1376 1378 1380 1383 1386 1390 1393 1395 1397 1398 1399 1399 1399 1398 1397 1395 1394 1392 1389 1386 1381 1377 1373 1369 1365 1360 1354 1348 1342 1338 1331 1326 1321 1316 1312 1309 1306 1304 1303
1365 1364 1363 1364 1364 1366 1369 1373 1377 1380 1383 1385 1387 1388 1389 1390 1389 1389 1389 1388 1387 1384 1381 1378 1374 1370 1365 1362 1358 1353 1348 1342 1334 1331 1326 1318 1315 1309 1305 1302 1298 1296 1294
1356 1354 1353 1353 1353 1356 1360 1364 1368 1370 1373 1375 1377 1379 1380 1380 1381 1380 1379 1378 1377 1375 1374 1371 1366 1362 1359 1355 1351 1346 1341 1335 1328 1324 1320 1310 1307 1301 1297 1294 1291 1289 1287
1346 1344 1343 1344 1344 1346 1351 1355 1359 1362 1364 1366 1368 1369 1371 1371 1372 1371 1370 1368 1366 1365 1363 1362 1358 1354 1351 1347 1344 1339 1333 1327 1321 1318 1314 1306 1300 1295 1290 1286 1283 1281 1280
1336 1335 1334 1334 1335 1337 1341 1346 1351 1353 1354 1356 1358 1360 1362 1362 1363 1363 1362 1360 1358 1356 1355 1353 1350 1346 1343 1340 1336 1331 1326 1321 1314 1310 1308 1302 1295 1290 1283 1279 1277 1275 1275
1328 1326 1325 1326 1327 1328 1332 1336 1341 1344 1346 1348 1350 1351 1353 1353 1354 1355 1354 1353 1351 1349 1347 1344 1341 1338 1334 1331 1327 1324 1319 1315 1310 1304 1300 1297 1292 1288 1280 1275 1273 1271 1269